This is the latest recevied weather packets stored in our database for station/object K9ABJ. If no packets are shown the sender has not sent any weather packets the latest 10 day(s).
| Time | Temp. | Humidity | Pressure | Rain* | Wind** | Luminosity | Snow |
|---|---|---|---|---|---|---|---|
| 1787767523 | 26.11° C | 71% | 1013.8 hPa | 0 mm | - | 733 W/m² | - |
| 1787767222 | 26.67° C | 70% | 1014 hPa | 0 mm | - | 595 W/m² | - |
| 1787766921 | 26.11° C | 71% | 1013.8 hPa | 0 mm | - | 642 W/m² | - |
| 1787766615 | 26.11° C | 70% | 1013.9 hPa | 0 mm | - | 712 W/m² | - |
| 1787766315 | 27.22° C | 70% | 1013.8 hPa | 0 mm | - | 494 W/m² | - |
| 1787766015 | 26.11° C | 71% | 1013.9 hPa | 0 mm | - | 703 W/m² | - |
| 1787765712 | 25.56° C | 70% | 1014.1 hPa | 0 mm | - | 635 W/m² | - |
| 1787765408 | 27.22° C | 70% | 1014.2 hPa | 0 mm | - | 596 W/m² | - |
| 1787765101 | 26.11° C | 70% | 1014.3 hPa | 0 mm | - | 607 W/m² | - |
| 1787764801 | 25° C | 72% | 1014.3 hPa | 0 mm | - | 643 W/m² | - |
| 1787764496 | 25° C | 71% | 1014.4 hPa | 0 mm | - | 539 W/m² | - |
| 1787764192 | 25° C | 72% | 1014.6 hPa | 0 mm | - | 619 W/m² | - |
| 1787763887 | 25° C | 72% | 1014.5 hPa | 0 mm | - | 424 W/m² | - |
| 1787763582 | 25.56° C | 71% | 1014.7 hPa | 0 mm | - | 604 W/m² | - |
| 1787763278 | 25.56° C | 71% | 1014.7 hPa | 0 mm | - | 781 W/m² | - |
| 1787762977 | 25° C | 73% | 1014.8 hPa | 0 mm | - | 1168 W/m² | - |
| 1787762677 | 23.89° C | 73% | 1014.9 hPa | 0 mm | - | 1097 W/m² | - |
| 1787762376 | 23.89° C | 74% | 1015 hPa | 0 mm | - | 522 W/m² | - |
| 1787762074 | 24.44° C | 74% | 1015.1 hPa | 0 mm | - | 329 W/m² | - |
| 1787761769 | 23.89° C | 75% | 1015.1 hPa | 0 mm | - | 341 W/m² | - |
| 1787761464 | 23.89° C | 76% | 1015 hPa | 0 mm | - | 175 W/m² | - |
| 1787761159 | 23.89° C | 75% | 1015.4 hPa | 0 mm | - | 302 W/m² | - |
| 1787760858 | 23.89° C | 75% | 1015.5 hPa | 0 mm | - | 505 W/m² | - |
| 1787760556 | 23.89° C | 75% | 1015.4 hPa | 0 mm | - | 296 W/m² | - |
| 1787760251 | 23.33° C | 77% | 1015.4 hPa | 0 mm | - | 327 W/m² | - |
* Rain latest hour (hover to see other rain measurements)
** Current wind speed in m/s (hover to see current wind gust speed)